Weather History for Park Rapids, MN

Change the Weather History Date:

Tuesday, December 21, 2010

  Actual Average Record
Temperature  
Mean Temperature 23 °F -  
Max Temperature 27 °F 19 °F 41 °F (1979)
Min Temperature 19 °F 0 °F -32 °F (1989)
Degree Days  
Heating Degree Days 42    
Moisture  
Dew Point 21 °F    
Average Humidity 88    
Maximum Humidity 100    
Minimum Humidity 74    
Precipitation  
Precipitation 0.02 in - - ()
Sea Level Pressure  
Sea Level Pressure 29.97 in    
Wind  
Wind Speed 8 mph (NNE)    
Max Wind Speed 13 mph    
Max Gust Speed 17 mph    
Visibility 6 miles    
Events Fog , Rain , Snow    
Averages and records for this station are not official NWS values.
T = Trace of Precipitation, MM = Missing Value Source: NWS Daily Summary

Daily Weather History Graph

Daily Weather History Graph

Search for Another Location

Airport:

Trip Planner

Search our weather history database for the weather conditions in past years. The results will help you decide how hot, cold, wet, or windy it might be!

Date:

Astronomy

Dec. 21, 2010 Rise Set
Actual Time 8:02 AM CST 4:34 PM CST
Civil Twilight 7:27 AM CST 5:09 PM CST
Nautical Twilight 6:48 AM CST 5:48 PM CST
Astronomical Twilight 6:11 AM CST 6:25 PM CST
Moon 5:06 PM CST (12/21) 8:21 AM CST (12/21)
Length of Visible Light 9h 42m
Length of Day
8h 31m
Full, 100% of the Moon is Illuminated
Dec 21
Full
Dec 27
Last Quarter
Jan 4
New
Jan 12
First Quarter
Jan 19
Full

Hourly Weather History & Observations

Time (CST) Temp. Windchill Dew Point Humidity Pressure Visibility Wind Dir Wind Speed Gust Speed Precip Events Conditions
12:08 AM 19.4 °F 6.6 °F 17.6 °F 93% 29.80 in 3.0 mi ESE 12.7 mph - N/A   Overcast
12:25 AM 19.4 °F 7.9 °F 17.6 °F 93% 29.80 in 2.5 mi ESE 10.4 mph - N/A   Overcast
12:36 AM 19.4 °F 6.6 °F 17.6 °F 93% 29.80 in 3.0 mi ESE 12.7 mph - N/A   Overcast
12:53 AM 19.9 °F 7.9 °F 18.0 °F 92% 29.88 in 3.0 mi ESE 11.5 mph - N/A   Overcast
1:23 AM 19.4 °F 9.5 °F 17.6 °F 93% 29.79 in 2.5 mi ESE 8.1 mph - N/A   Overcast
1:33 AM 19.4 °F 7.9 °F 17.6 °F 93% 29.79 in 1.8 mi ESE 10.4 mph 17.3 mph N/A   Overcast
1:37 AM 19.4 °F 9.5 °F 17.6 °F 93% 29.79 in 3.0 mi ESE 8.1 mph - N/A   Overcast
1:53 AM 19.9 °F 9.3 °F 18.0 °F 92% 29.86 in 4.0 mi ESE 9.2 mph - N/A   Overcast
2:53 AM 21.0 °F 11.4 °F 19.0 °F 92% 29.88 in 3.0 mi ESE 8.1 mph - N/A   Overcast
3:53 AM 21.0 °F 14.6 °F 19.9 °F 96% 29.88 in 4.0 mi ESE 4.6 mph - N/A   Overcast
4:46 AM 21.2 °F 13.6 °F 19.4 °F 93% 29.80 in 4.0 mi ESE 5.8 mph - N/A   Overcast
4:53 AM 21.9 °F 15.7 °F 19.9 °F 92% 29.88 in 4.0 mi ESE 4.6 mph - N/A   Overcast
5:53 AM 21.9 °F 15.7 °F 21.0 °F 96% 29.88 in 3.0 mi East 4.6 mph - N/A   Overcast
6:05 AM 21.2 °F 14.9 °F 21.2 °F 100% 29.81 in 2.5 mi East 4.6 mph - 0.00 in Rain Light Freezing Rain
6:16 AM 23.0 °F 18.4 °F 21.2 °F 93% 29.81 in 3.0 mi ENE 3.5 mph - 0.00 in Rain Light Freezing Rain
6:53 AM 23.0 °F 18.4 °F 21.0 °F 92% 29.90 in 4.0 mi East 3.5 mph - 0.00 in   Overcast
7:25 AM 23.0 °F 18.4 °F 21.2 °F 93% 29.84 in 4.0 mi ENE 3.5 mph - 0.00 in Snow Light Snow
7:53 AM 23.0 °F - 21.0 °F 92% 29.92 in 5.0 mi Calm Calm - 0.00 in   Overcast
8:30 AM 23.0 °F 17.0 °F 21.2 °F 93% 29.85 in 2.5 mi NE 4.6 mph - 0.01 in Snow Light Snow
8:41 AM 23.0 °F 17.0 °F 21.2 °F 93% 29.85 in 3.0 mi ENE 4.6 mph - 0.01 in Snow Light Snow
8:51 AM 23.0 °F 15.8 °F 21.2 °F 93% 29.86 in 2.5 mi NE 5.8 mph - 0.01 in Snow Light Snow
8:53 AM 23.0 °F 15.8 °F 21.0 °F 92% 29.94 in 2.5 mi NE 5.8 mph - 0.01 in Snow Light Snow
9:22 AM 23.0 °F 18.4 °F 21.2 °F 93% 29.88 in 1.2 mi NNE 3.5 mph - 0.00 in Snow Light Snow
9:42 AM 23.0 °F 17.0 °F 21.2 °F 93% 29.89 in 0.5 mi NNE 4.6 mph - 0.01 in Fog , Snow Snow
9:53 AM 24.1 °F 18.2 °F 19.9 °F 84% 29.97 in 0.8 mi NNE 4.6 mph - 0.01 in Snow Light Snow
10:02 AM 24.8 °F 19.1 °F 19.4 °F 80% 29.89 in 1.0 mi NNE 4.6 mph - 0.00 in Snow Light Snow
10:15 AM 24.8 °F 19.1 °F 19.4 °F 80% 29.90 in 1.5 mi North 4.6 mph - 0.00 in Snow Light Snow
10:30 AM 24.8 °F 16.9 °F 19.4 °F 80% 29.90 in 2.0 mi North 6.9 mph - 0.00 in Snow Light Snow
10:46 AM 23.0 °F 14.7 °F 19.4 °F 86% 29.90 in 2.5 mi North 6.9 mph - 0.00 in Snow Light Snow
10:53 AM 23.0 °F 14.7 °F 19.9 °F 88% 29.98 in 3.0 mi North 6.9 mph - 0.00 in Snow Light Snow
11:53 AM 24.1 °F 16.0 °F 19.9 °F 84% 29.98 in 10.0 mi North 6.9 mph - 0.00 in   Mostly Cloudy
12:06 PM 24.8 °F 16.9 °F 19.4 °F 80% 29.91 in 10.0 mi North 6.9 mph - N/A   Overcast
12:30 PM 24.8 °F 16.9 °F 19.4 °F 80% 29.92 in 10.0 mi North 6.9 mph - N/A   Overcast
12:53 PM 25.0 °F 15.5 °F 19.9 °F 81% 30.00 in 8.0 mi NNW 9.2 mph - 0.00 in Snow Light Snow
1:25 PM 24.8 °F 16.9 °F 21.2 °F 86% 29.93 in 7.0 mi North 6.9 mph - 0.00 in Snow Light Snow
1:49 PM 24.8 °F 16.1 °F 21.2 °F 86% 29.94 in 10.0 mi NNW 8.1 mph - 0.00 in   Overcast
1:53 PM 25.0 °F 16.3 °F 21.0 °F 85% 30.01 in 10.0 mi North 8.1 mph - 0.00 in   Overcast
2:17 PM 26.6 °F 18.2 °F 19.4 °F 74% 29.94 in 10.0 mi North 8.1 mph - 0.00 in   Overcast
2:53 PM 25.0 °F 19.3 °F 21.0 °F 85% 30.05 in 10.0 mi NNW 4.6 mph - 0.00 in   Overcast
3:53 PM 26.1 °F 16.8 °F 21.0 °F 81% 30.08 in 10.0 mi NNW 9.2 mph - N/A   Overcast
4:53 PM 25.0 °F 16.3 °F 21.9 °F 88% 30.12 in 10.0 mi NNW 8.1 mph - N/A   Overcast
5:05 PM 24.8 °F 16.1 °F 21.2 °F 86% 30.05 in 10.0 mi NNW 8.1 mph - N/A   Overcast
5:12 PM 24.8 °F 16.9 °F 21.2 °F 86% 30.06 in 10.0 mi NNW 6.9 mph - N/A   Overcast
5:49 PM 26.6 °F 16.8 °F 21.2 °F 80% 30.08 in 10.0 mi NNW 10.4 mph - N/A   Overcast
5:53 PM 26.1 °F 16.8 °F 21.9 °F 84% 30.15 in 10.0 mi NNW 9.2 mph - N/A   Overcast
6:53 PM 26.1 °F 16.2 °F 21.9 °F 84% 30.18 in 10.0 mi NNW 10.4 mph - N/A   Overcast
7:15 PM 26.6 °F 17.5 °F 21.2 °F 80% 30.11 in 10.0 mi NNW 9.2 mph - N/A   Overcast
7:40 PM 26.6 °F 16.8 °F 23.0 °F 86% 30.12 in 10.0 mi North 10.4 mph - N/A   Overcast
7:53 PM 26.1 °F 16.8 °F 21.9 °F 84% 30.20 in 10.0 mi NNW 9.2 mph - N/A   Overcast
8:53 PM 27.0 °F 17.3 °F 23.0 °F 85% 30.22 in 10.0 mi North 10.4 mph - N/A   Overcast
9:08 PM 26.6 °F 16.2 °F 23.0 °F 86% 30.15 in 10.0 mi NNW 11.5 mph - N/A   Overcast
9:24 PM 26.6 °F 17.5 °F 23.0 °F 86% 30.15 in 10.0 mi North 9.2 mph - N/A   Overcast
9:53 PM 27.0 °F 18.0 °F 24.1 °F 89% 30.23 in 10.0 mi North 9.2 mph - N/A   Overcast
10:53 PM 26.1 °F 16.8 °F 23.0 °F 88% 30.28 in 10.0 mi NNW 9.2 mph - N/A   Overcast
11:08 PM 26.6 °F 17.5 °F 23.0 °F 86% 30.22 in 10.0 mi NNW 9.2 mph - N/A   Overcast
11:53 PM 26.1 °F 16.2 °F 23.0 °F 88% 30.31 in 10.0 mi NNW 10.4 mph - N/A   Overcast